Regional Weather Roundup
Issued by NWS

Home | Current Version | Previous Version | Graphics & Text | Print | Product List | Glossary On
Versions: 1 2 3 4 5 6 7 8 9 10 11 12 13 14 15 16 17 18 19 20 21 22 23 24 25 26 27 28 29 30 31 32 33 34 35 36 37 38 39 40 41 42 43 44 45 46 47 48 49 50
000
ASUS45 KPSR 042310
RWRAZ

ARIZONA HOURLY REGIONAL WEATHER ROUNDUP
NATIONAL WEATHER SERVICE PHOENIX AZ
400 PM MST SAT JUL 04 2015

NOTE: FAIR INDICATES FEW OR NO CLOUDS BELOW 12,000 FEET WITH NO
SIGNIFICANT WEATHER AND/OR OBSTRUCTIONS TO VISIBILITY.

AZZ001>003-036-050000-
NORTHWEST ARIZONA

CITY           SKY/WX    TMP DP  RH WIND       PRES   REMARKS
BULLHEAD CITY  PTSUNNY  108  48  13 NE7       29.71F HX 104
KINGMAN        CLOUDY    89  50  26 W6        29.96F
$$

AZZ004>008-015-016-018-050000-
NORTH CENTRAL ARIZONA

CITY           SKY/WX    TMP DP  RH WIND       PRES   REMARKS
GRAND CANYON   PTSUNNY   80  50  34 SW12G18   30.17F
WILLIAMS       PTSUNNY   75  54  46 NW8       30.26S
PRESCOTT       PTSUNNY   84  53  34 W16       30.07S
FLAGSTAFF      CLOUDY    67  53  61 NW12G22   30.23R
PAYSON         PTSUNNY   88  54  31 W13       30.08S
PAGE           PTSUNNY   91  52  26 SW7       29.95F
$$

AZZ009>014-017-050000-
NORTHEAST ARIZONA

CITY           SKY/WX    TMP DP  RH WIND       PRES   REMARKS
WINSLOW        CLOUDY    76  59  55 S20G26    30.04F
SAINT JOHNS    CLOUDY    74  58  57 SW15G22   30.14R
WINDOW ROCK    CLOUDY    70  53  54 SE9G18    30.19R
SHOW LOW       LGT RAIN  57  55  94 S14       30.24F
$$

AZZ023-050000-
GREATER PHOENIX AREA

CITY           SKY/WX    TMP DP  RH WIND       PRES   REMARKS
PHOENIX        MOSUNNY  104  53  18 W10G18    29.74F HX 102
BUCKEYE        CLOUDY   102  55  21 W13       29.76F HX 101
GLENDALE       MOSUNNY  106  55  18 SW17G23   29.76F HX 105
LUKE AFB       MOSUNNY  104  55  20 SW21      29.73F HX 103
DEER VALLEY    MOSUNNY  101  53  20 SW13G20   29.76F
SCOTTSDALE     SUNNY    102  53  19 SW14G22   29.79F HX 100
MESA-FALCON    MOSUNNY  106  52  16 W12       29.77F HX 103
MESA-GATEWAY   PTSUNNY  102  55  21 SW10      29.79F HX 101
CHANDLER       PTSUNNY  104  54  18 SW9       29.76F HX 102
$$

AZZ027-028-050000-
SOUTHWEST MARICOPA COUNTY AND PINAL COUNTY

CITY           SKY/WX    TMP DP  RH WIND       PRES   REMARKS
CASA GRANDE    MOSUNNY  100  55  22 W12       29.78F
GILA BEND      FAIR     102  55  20 SW9       29.75S HX 100
$$

AZZ503-504-507>509-050000-
SOUTHEAST ARIZONA

CITY           SKY/WX    TMP DP  RH WIND       PRES   REMARKS
TUCSON         PTSUNNY   92  55  28 W9        29.92F
DAVIS-MONTHAN  CLOUDY    92  55  29 NW10      29.90F
RYAN FIELD     SUNNY     91  55  29 NW3       29.90F
NOGALES        PTSUNNY   86  56  35 W7        30.01F
SIERRA VISTA   MOSUNNY   85  54  34 N9        30.05F
DOUGLAS        MOSUNNY   92  53  26 W8        29.97F
SAFFORD        PTSUNNY   94  57  28 NW16      29.89F
$$

AZZ020-021-025-026-031-050000-
SOUTHWEST ARIZONA

CITY           SKY/WX    TMP DP  RH WIND       PRES   REMARKS
YUMA           MOSUNNY  108  53  16 S17       29.69F HX 106
$$

CAZ031-033-041-043-047-048-061-050000-
SOUTHERN CALIFORNIA

CITY           SKY/WX    TMP DP  RH WIND       PRES   REMARKS
DOWNTOWN L.A.  SUNNY     74  60  61 VRB5      29.87F
L.A. AIRPORT   MOSUNNY   70  60  70 W13G22    29.88F
SAN DIEGO      MOSUNNY   72  59  63 W13       29.91F
BURBANK        SUNNY     80  59  48 S13       29.86F
ONTARIO        MOSUNNY   86  56  35 SW15      29.86F
RIVERSIDE      SUNNY     87  56  34 W9G17     29.84F
PALM SPRINGS   MOSUNNY  109  53  15 NW12G26   29.69F HX 107
EL CENTRO NAS  SUNNY    109  53  15 SE13G24   29.66F HX 107
IMPERIAL       SUNNY    109  57  18 SE21G28   29.64F HX 109
BLYTHE         MOSUNNY  108  60  21 S18       29.68F HX 109
NEEDLES        PTSUNNY  107  48  14 E5        29.71F HX 103
$$

NVZ020-UTZ003-050000-
SOUTHERN NEVADA-UTAH

CITY           SKY/WX    TMP DP  RH WIND       PRES   REMARKS
LAS VEGAS      PTSUNNY  100  47  16 S14       29.78F
SALT LAKE CITY PTSUNNY   99  50  19 NW9       29.85F
$$

NMZ009-TXZ055-050000-
NEW MEXICO-WEST TEXAS

CITY           SKY/WX    TMP DP  RH WIND       PRES   REMARKS
ALBUQUERQUE    CLOUDY    78  59  51 SW8       30.06F
EL PASO        PTSUNNY   95  50  21 VRB7      29.91F
$$


........................KEY........................
SKY/WX - SKY CONDITION/WEATHER
TMP    - TEMPERATURE IN FAHRENHEIT
DP     - DEW POINT IN FAHRENHEIT
RH     - RELATIVE HUMIDITY IN PERCENT
WIND   - DIRECTION AND SPEED IN MILES PER HOUR (MPH)
VRB    - VARIABLE WIND DIRECTION
PRES   - MEAN SEA LEVEL PRESSURE IN INCHES OF MERCURY
         F - FALLING PRESSURE   R - RISING PRESSURE
         S - STEADY PRESSURE
VSB    - VISIBILITY IN MILES
HX     - HEAT INDEX IN FAHRENHEIT
WCI    - WIND CHILL INDEX IN FAHRENHEIT
TC     - TEMPERATURE IN CELSIUS WHICH IS ALSO KNOWN AS
         TEMPERATURE IN CENTIGRADE
AFB    - AIR FORCE BASE
         LUKE AFB IS LUKE AIR FORCE BASE
         DAVIS-MONTHAN IS DAVIS-MONTHAN AIR FORCE BASE
NAS    - NAVAL AIR STATION
         EL CENTRO NAS IS EL CENTRO NAVAL AIR STATION
N/A    - NOT AVAILABLE




USA.gov is the U.S. government's official web portal to all federal, state and local government web resources and services.